Home > Weather > Sevierville > Past weeks

Flag for USA Weather for the Past 2 Weeks in Sevierville, Tennessee, USA

Now
64 °F

Light rain. Fog.


Feels Like: 64 °F
Forecast: 64 / 82 °F
Wind: 3 mph from Southwest

Location: McGhee Tyson Airport

Current Time: May 1, 2016 at 10:09:25 AM

Latest Report: May 1, 2016 at 8:53 AM


Visibility: 1 mi

Pressure: 29.99 "Hg

Humidity: 97%

Dew Point: 63 °F

Location of SeviervilleLocation

Historic Weather in Sevierville — Graph

°F

Sevierville Temperature Yesterday

Maximum temperature yesterday: 75 °F (at 12:53 PM)
Minimum temperature yesterday: 59 °F (at 6:53 AM)
Average temperature yesterday: 66 °F

High & Low Weather Summary for the Past Weeks

 TemperatureHumidityPressure
High85 °F (Apr 20, 5:53 PM)100% (Apr 23, 1:53 AM)30.41 "Hg (Apr 23, 1:53 AM)
Low45 °F (Apr 17, 6:53 AM)16% (Apr 18, 4:53 PM)29.74 "Hg (Apr 27, 7:53 PM)
Average68 °F59%30.02 "Hg
* Reported Apr 16 8:53 AM — May 1 8:53 AM, Sevierville, Weather by CustomWeather, © 2016

Note: Actual official high and low records may vary slightly from our data, if they occured in-between our weather recording intervals... More about our weather records

Advertising

Sevierville Weather History for the Previous 24 Hours

Scroll right to see more
 ConditionsComfort  
Time TempWeatherWind HumidityBarometerVisibility
8:53 AM
Sun, May 1
64 °FLight rain. Fog.3 mph97%29.99 "Hg1 mi
7:53 AM63 °FFog.No wind100%29.97 "Hg1 mi
7:03 AM62 °FFog.No wind100%29.98 "Hg0 mi
6:53 AM62 °FFog.5 mph96%29.96 "Hg0 mi
5:53 AM63 °FFog.3 mph97%29.94 "Hg0 mi
4:53 AM63 °FFog.No wind97%29.93 "Hg0 mi
3:53 AM63 °FLight rain. Fog.No wind97%29.92 "Hg2 mi
2:53 AM63 °FThunderstorms. Overcast.5 mph97%29.91 "Hg8 mi
1:53 AM63 °FMostly cloudy.5 mph97%29.93 "Hg7 mi
12:53 AM63 °FPartly cloudy.7 mph97%29.94 "Hg10 mi
11:53 PM
Sat, Apr 30
63 °FPartly cloudy.7 mph97%29.94 "Hg10 mi
11:04 PM63 °FPartly cloudy.8 mph97%29.97 "Hg10 mi
9:53 PM64 °FLight rain. Mostly cloudy.9 mph94%29.95 "Hg7 mi
9:04 PM64 °FHeavy rain. Fog.8 mph94%29.98 "Hg1 mi
7:53 PM66 °FRain. Partly sunny.5 mph87%29.95 "Hg10 mi
6:53 PM67 °FRain. Cloudy.7 mph81%29.93 "Hg10 mi
5:53 PM68 °FBroken clouds.10 mph82%29.92 "Hg10 mi
4:53 PM67 °FCloudy.9 mph81%29.92 "Hg10 mi
3:53 PM68 °FCloudy.7 mph87%29.93 "Hg10 mi
2:53 PM65 °FThunderstorms. Mostly cloudy.10 mph85%29.96 "Hg3 mi
1:53 PM73 °FLight rain. Cloudy.9 mph59%29.95 "Hg10 mi
12:53 PM75 °FCloudy.6 mph54%29.93 "Hg10 mi
11:53 AM73 °FCloudy.5 mph53%29.95 "Hg10 mi
10:53 AM69 °FMore clouds than sun.5 mph63%29.96 "Hg10 mi
Weather by CustomWeather, © 2016

See weather overviewHow to use our weather pages